Regional Weather Roundup
Issued by NWS

Current Version | Previous Version | Text Only | Print | Product List | Glossary On
Versions: 1 2 3 4 5 6 7 8 9 10 11 12 13 14 15 16 17 18 19 20 21 22 23 24 25 26 27 28 29 30 31 32 33 34 35 36 37 38 39 40 41 42 43 44 45 46 47 48 49 50
000
ASUS42 KTBW 271910
RWRFL
FLORIDA REGIONAL WEATHER ROUNDUP
NATIONAL WEATHER SERVICE TAMPA BAY RUSKIN FL
200 PM EST THU NOV 27 2014

NOTE: "FAIR" INDICATES FEW OR NO CLOUDS BELOW 12,000 FEET WITH NO
SIGNIFICANT WEATHER AND/OR OBSTRUCTIONS TO VISIBILITY.


FLZ001>010-012>015-112-114-115-272000-
PANHANDLE FLORIDA

CITY           SKY/WX    TMP DP  RH WIND       PRES   REMARKS
PENSACOLA      SUNNY     59  29  31 NW15      30.32F
PENSACOLA NAS  SUNNY     60  32  34 NW13G20   30.32F
MILTON NAS     SUNNY     57  32  38 NW10G18   30.34F
CRESTVIEW      SUNNY     58  32  37 NW15      30.33F
DUKE FIELD     FAIR      58  31  35 NW17      30.31F
VALPARAISO     SUNNY     60  29  31 N16       30.31F
MARY ESTHER    SUNNY     60  26  27 NW13      30.30F
TRI COUNTY     FAIR      58  34  40 VRB6      30.30F
PANAMA CITY    FAIR      59  34  39 NW14G25   30.29F
TYNDALL AFB    SUNNY     61  40  46 NW13      30.29F
APALACHICOLA   SUNNY     65  33  30 N12       30.27F

STATION/POSITION SKY/WX   TEMP    WIND        PRES    WAVE   SWELL
                          AIR SEA DIR/SP/G            HT/PER HT/PER
                          (F)     (DEG/KT/KT) (MB)    (FT/S) (FT/S)
30.1N   87.6W              57 64  340/ 10/ 14 1026.7F   2/ 3
29.2N   88.2W              58 71  360/ 17/ 23 1027.9F   4/ 6
28.7N   86.0W              63 75  340/ 16/ 19 1025.6    6/ 7   3/11
PANAMA CITY BEAC           58 63  360/ 13/ 15 1025.6S
CAPE SAN BLAS    NOT AVBL
TOWER C                    58     320/ 12/ 15 1024.6F
28.5N   84.5W              60 70  330/ 17/ 21 1024.7F   6/ 8   3/ 8

$$
FLZ011-016>038-118-127-128-134-139-239-272000-
NORTH FLORIDA

CITY           SKY/WX    TMP DP  RH WIND       PRES   REMARKS
MARIANNA       LGT RAIN  59  32  36 NW13G23   30.28F
TALLAHASSEE    SUNNY     61  30  31 N14       30.26F
PERRY          SUNNY     61  30  31 N9G20     30.24F
CROSS CITY       N/A     64  33  31 NW12      30.22F
LAKE CITY      FAIR      61  32  33 NW16G23   30.21F
GAINESVILLE    SUNNY     63  33  32 NW13G20   30.21F
MAYPORT NAS    SUNNY     60  33  36 NW10G23   30.18F
JACKSONVILLE   SUNNY     60  32  34 NW18G26   30.19F
JAX NAS        SUNNY     63  30  28 W17       30.20F
JAX CRAIG      SUNNY     61  32  33 NW15      30.18F
JAX CECIL      SUNNY     61  32  33 W17G25    30.20F
FERNANDINA BEA FAIR      64  32  29 W17G25    30.17F
ST AUGUSTINE   SUNNY     62  34  35 NW16G24   30.19F

STATION/POSITION SKY/WX   TEMP    WIND        PRES    WAVE   SWELL
                          AIR SEA DIR/SP/G            HT/PER HT/PER
                          (F)     (DEG/KT/KT) (MB)    (FT/S) (FT/S)
SHELL POINT                59     340/ 10/ 15   N/A
KEATON BEACH               58     300/ 14/ 17 1024.0F
CEDAR KEY                  59     310/ 11/ 17 1024.6F
FERNANDINA                 57 60  280/ 17/ 20 1021.5F
30.7N   81.3W                 62                N/A     3/ 4
MAYPORT                    58 63  300/ 13/ 20   N/A
31.4N   80.9W              55 63  300/ 19/ 23 1020.9F   4/ 4
ST AUGUSTINE               60     280/ 13/ 16 1022.5F

$$
FLZ040-043>046-052-053-057-058-063-144-272000-
INTERIOR CENTRAL FLORIDA

CITY           SKY/WX    TMP DP  RH WIND       PRES   REMARKS
OCALA          SUNNY     64  36  34 W12       30.20F
THE VILLAGES     N/A     66  39  37 W10       30.10S
LEESBURG       SUNNY     67  40  37 NW12G22   30.19F
SANFORD        SUNNY     68  44  42 NW17      30.17F
ORLANDO EXEC   SUNNY     69  45  41 NW16      30.17F
ORLANDO INTL   MOSUNNY   70  49  47 NW15      30.16F
KISSIMMEE      SUNNY     70  50  49 W16G26    30.16F
WINTER HAVEN   SUNNY    N/A N/A N/A NW18G28   30.18F
LAKELAND       SUNNY     70  48  46 W16       30.18F
OKEECHOBEE     SUNNY     70  50  49 NW12G17   30.17F

$$
FLZ041-047-054-059-064-141-147-272000-
EAST CENTRAL FLORIDA

CITY           SKY/WX    TMP DP  RH WIND       PRES   REMARKS
DAYTONA BEACH  SUNNY     66  42  41 NW13      30.18F
DELAND         CLEAR     64  43  45 NW16      30.19F
NEW SMYRNA BEA SUNNY     66  46  48 NW15G23   30.18F
JFK SPACE CTR  SUNNY     69  45  43 NW13      30.16F
TITUSVILLE     SUNNY     68  46  45 NW16      30.16F
CAPE CANAVERAL SUNNY     70  47  44 NW16      30.15F
PATRICK AFB    SUNNY     70  47  44 NW17G25   30.15F
MELBOURNE      SUNNY     72  50  45 NW17      30.15F
VERO BEACH     SUNNY     70  48  45 N13       30.16F
FT PIERCE      SUNNY     72  47  40 NW10G18   30.16F
STUART         SUNNY     70  43  37 N9G21     30.18F

STATION/POSITION SKY/WX   TEMP    WIND        PRES    WAVE   SWELL
                          AIR SEA DIR/SP/G            HT/PER HT/PER
                          (F)     (DEG/KT/KT) (MB)    (FT/S) (FT/S)
28.5N   80.2W              65 75  300/ 17/ 21 1021.4F
28.9N   78.5W              68 78  280/ 17/ 23 1019.7F   7/ 9   3/ 9
TRIDENT PIER               68 69  290/  8/ 14 1020.8F
28.4N   80.5W                 69                N/A     2/ 9
27.6N   80.2W                 76                N/A     4/ 9

$$
FLZ050-056-061-142-242-148-248-149-249-151-251-155-255-
160-260-272000-
WEST CENTRAL FLORIDA

CITY           SKY/WX    TMP DP  RH WIND       PRES   REMARKS
CRYSTAL RIVER  FAIR      64  39  39 W13       30.22F
INVERNESS      FAIR      68  37  32 N6        30.20F
BROOKSVILLE    SUNNY     66  40  38 NW18G25   30.22F
ZEPHYRHILLS    FAIR      68  36  30 W18       30.20F
CLEARWATER     SUNNY     65  46  50 NW20      30.22F
TAMPA INTL     SUNNY     68  43  40 NW16      30.21F
TAMPA EXEC     SUNNY     72  43  35 NW13G18   30.20F
PLANT CITY     SUNNY     72  41  33 NW13G21   30.21F
MACDILL AFB    SUNNY     70  49  47 N14G20    30.21F
PETER O KNIGHT SUNNY     72  45  37 N6G17     30.20F
ST PETERSBURG  SUNNY     68  47  46 N16       30.19F
SARASOTA       SUNNY     70  54  56 NW12      30.19F
VENICE         FAIR      68  54  60 NW9       30.21F

STATION/POSITION SKY/WX   TEMP    WIND        PRES    WAVE   SWELL
                          AIR SEA DIR/SP/G            HT/PER HT/PER
                          (F)     (DEG/KT/KT) (MB)    (FT/S) (FT/S)
CEDAR KEY                  59     310/ 11/ 17 1024.6F
28.5N   84.5W              60 70  330/ 17/ 21 1024.7F   6/ 8   3/ 8
27.3N   84.3W                 78                N/A     6/ 8
CLEARWATER BEACH           61 64  340/ 20/ 24 1023.1S
MIDDLE TAMPA BAY           67     350/ 12/ 15 1022.9F
VENICE                     66 68  310/  9/ 10 1022.3F

$$
FLZ066-069-070-075>078-162-262-165-265-272000-
SOUTHWEST FLORIDA AND KEYS

CITY           SKY/WX    TMP DP  RH WIND       PRES   REMARKS
PUNTA GORDA    SUNNY     74  53  48 N12       30.20F
FT MYERS       SUNNY     73  52  47 N12G18    30.17F
SOUTHWEST INTL SUNNY     72  52  49 N7G17     30.18F
NAPLES         SUNNY     72  51  47 NW14      30.18F
MARCO ISLAND   CLEAR     73  50  43 N10G21    30.17F
MARATHON       SUNNY     70  45  40 N13G21    30.17F
KEY WEST NAS   SUNNY     69  32  25 N21G30    30.19F
KEY WEST INTL  SUNNY     70  51  51 N17G28    30.19F

STATION/POSITION SKY/WX   TEMP    WIND        PRES    WAVE   SWELL
                          AIR SEA DIR/SP/G            HT/PER HT/PER
                          (F)     (DEG/KT/KT) (MB)    (FT/S) (FT/S)
VENICE                     66 68  310/  9/ 10 1022.3F
NAPLES                     69 75  330/ 15/ 18 1022.4F
26.0N   85.6W              72 80  350/ 16/ 23 1023.8F   3/ 5
DRY TORTUGAS               69      30/ 20/ 24 1023.4F
NW FL BAY                  69      30/ 15/ 17 1022.9F
SAND KEY                   67      10/ 25/ 29 1022.2F
SOMBRERO KEY               69     360/ 19/ 21 1022.1F
LONG KEY                   67 72   10/ 18/ 21 1023.1F
MOLASSES REEF              69 77   10/ 15/ 18 1021.0F

$$
FLZ067-068-071>074-168-172>174-272000-
SOUTHEAST FLORIDA

CITY           SKY/WX    TMP DP  RH WIND       PRES   REMARKS
W PALM BEACH   SUNNY     73  45  36 NW12      30.14F
FT LAUDER-EXEC SUNNY     72  41  32 NW9       30.16F
FT LAUDERDALE  MOSUNNY   73  42  32 N13       30.16F
POMPANO BEACH  SUNNY     73  41  31 NW10      30.16F
PEMBROKE PINES SUNNY     73  42  32 N15       30.18F
OPA LOCKA      SUNNY     73  43  33 NW15      30.17F
MIAMI          MOSUNNY   72  40  31 N10       30.17F
WEST KENDALL   SUNNY     72  42  34 N17       30.17F
HOMESTEAD      SUNNY     72  43  35 NW16G22   30.16F

STATION/POSITION SKY/WX   TEMP    WIND        PRES    WAVE   SWELL
                          AIR SEA DIR/SP/G            HT/PER HT/PER
                          (F)     (DEG/KT/KT) (MB)    (FT/S) (FT/S)
PORT EVERGLADES            70     330/  9/ 14 1021.1
VIRGINIA KEY               70 76  350/  8/ 13 1021.8F
LAKE WORTH                 69 75  340/ 11/ 17 1020.8F
FOWEY ROCKS                68 78  340/ 17/ 19 1021.4F
SETTLEMENT POINT           70     340/ 19/ 22 1021.0F

$$




USA.gov is the U.S. government's official web portal to all federal, state and local government web resources and services.